This demonstration page uses our WeatherBlox Daily Observations layout. Learn more.

Left ArrowRight Arrow

39.12711, -84.51439

Hourly Observations for December 22, 2018

Temp ( °F °C ) Dew Point ( °F °C ) Humidity (%) Winds ( mph kmh ) Pressure ( in mb ) Visibility ( mi km ) Precip ( " mm )
12:53 am 00:53 Cloudy 36 2.2 31 -0.6 82 82 WNW 9 15 29.78 1009 10 16 0.00 0.00
1:50 am 01:50 Cloudy 36 2 30 -1 81 81 W 6 9 29.83 1010 10 16 0.00 0.00
1:53 am 01:53 Cloudy 36 2.2 30 -1.1 79 79 W 6 9 29.80 1009 10 16 0.00 0.00
2:53 am 02:53 Cloudy 36 2.2 30 -1.1 79 79 WNW 10 17 29.85 1011 10 16 0.00 0.00
3:53 am 03:53 Cloudy 35 1.7 30 -1.1 82 82 W 15 24 29.88 1012 10 16 0.00 0.00
4:53 am 04:53 Cloudy 35 1.7 29 -1.7 78 78 W 10 17 29.90 1013 10 16 0.00 0.00
5:53 am 05:53 Cloudy 35 1.7 29 -1.7 78 78 W 10 17 29.92 1013 10 16 0.00 0.00
6:53 am 06:53 Cloudy 35 1.7 29 -1.7 78 78 W 9 15 29.95 1014 10 16 0.00 0.00
7:53 am 07:53 Cloudy 34 1.1 29 -1.7 82 82 WSW 13 20 29.99 1016 10 16 0.00 0.00
8:53 am 08:53 Cloudy 34 1.1 28 -2.2 79 79 W 10 17 30.04 1017 10 16 0.00 0.00
9:53 am 09:53 Cloudy 34 1.1 28 -2.2 79 79 WSW 15 24 30.07 1018 10 16 0.00 0.00
10:21 am 10:21 Cloudy 33 0.6 28 -2.2 82 82 W 8 13 30.06 1018 10 16 0.00 0.00
10:53 am 10:53 Cloudy 33 0.6 28 -2.2 82 82 WSW 10 17 30.09 1019 10 16 0.00 0.00
11:53 am 11:53 Cloudy 34 1.1 29 -1.7 82 82 WSW 9 15 30.08 1019 10 16 0.00 0.00
12:53 pm 12:53 Cloudy 35 1.7 29 -1.7 78 78 WSW 12 19 30.06 1018 10 16 0.00 0.00
1:53 pm 13:53 Cloudy 36 2.2 29 -1.7 76 76 SW 9 15 30.06 1018 10 16 0.00 0.00
2:53 pm 14:53 Cloudy 37 2.8 29 -1.7 73 73 SW 10 17 30.05 1018 10 16 0.00 0.00
3:53 pm 15:53 Mostly Cloudy 37 2.8 29 -1.7 73 73 SSW 9 15 30.06 1018 10 16 0.00 0.00
4:53 pm 16:53 Mostly Sunny 35 1.7 29 -1.7 78 78 SSW 6 9 30.09 1019 10 16 0.00 0.00
5:53 pm 17:53 Clear 35 1.7 28 -2.2 76 76 Calm 30.09 1019 10 16 0.00 0.00
6:53 pm 18:53 Clear 33 0.6 28 -2.2 82 82 Calm 30.10 1019 10 16 0.00 0.00
7:53 pm 19:53 Clear 30 -1.1 28 -2.2 92 92 Calm 30.11 1020 10 16 0.00 0.00
8:53 pm 20:53 Clear 30 -1.1 29 -1.7 96 96 Calm 30.10 1019 10 16 0.00 0.00
9:53 pm 21:53 Clear 30 -1.1 28 -2.2 92 92 Calm 30.11 1020 8 13 0.00 0.00
10:53 pm 22:53 Clear with Mist and Fog 30 -1.1 28 -2.2 92 92 Calm 30.12 1020 5 8 0.00 0.00
11:28 pm 23:28 Clear with Mist and Fog 31 -0.6 30 -1.1 96 96 Calm 30.15 1021 2 3 0.00 0.00
11:45 pm 23:45 Clear with Mist and Fog 30 -1.1 29 -1.7 96 96 Calm 30.15 1021 3 5 0.00 0.00
11:53 pm 23:53 Clear with Mist and Fog 30 -1.1 28 -2.2 92 92 Calm 30.13 1020 4 6 0.00 0.00

Powered by AerisWeather